Find Starlink 36082

NORAD ID: 66872 Int'l Des: 2025-281 Owner: SPXS Country: US Constellation: starlink operational
LEOCIRCULAR

Live Position

Loading 3D Globe...

About Starlink 36082

Description loading...

Upcoming Passes

Passes for default location (London). Set your location on the main map for personalized predictions.

Altitude History

Loading altitude history...

Two-Line Element Set

1 66872U 25281AA 26104.38320456 .00016296 00000-0 60020-3 0 9996
2 66872 42.9993 141.9533 0001458 254.3547 105.7144 15.27590659 21634
Epoch: Apr 14, 2026 • Age: 26 hours

Current Status

Altitude 487.0 km
Velocity 7.63 km/s
Sub-Earth Point 43.15°N, 137.18°W
Launch Date Dec 2, 2025
Age 0.3 years
Type internet

Technical Details

Classification Payload
Mass 575.00 kg
Dry Mass 530.00 kg
Total Mass 575.00 kg
Length 0.30 m
Diameter 4.10 m
Span 29.00 m
Shape Box + pan
Manufacturer SPXS
Bus Type Starlink V2MO
Phase Status In Orbit
Owner/State SPXS/US

Most Searched